Regional Weather Roundup
Issued by NWS

Home | Current Version | Previous Version | Graphics & Text | Print | Product List | Glossary On
Versions: 1 2 3 4 5 6 7 8 9 10 11 12 13 14 15 16 17 18 19 20 21 22 23 24 25 26 27 28 29 30 31 32 33 34 35 36 37 38 39 40 41 42 43 44 45 46 47 48 49 50
000
ASUS43 KBIS 140810
RWRND

NORTH DAKOTA REGIONAL WEATHER ROUNDUP
NATIONAL WEATHER SERVICE BISMARCK ND
200 AM CST THU DEC 14 2017

NOTE: "FAIR" INDICATES FEW OR NO CLOUDS BELOW 12,000 FEET WITH NO
SIGNIFICANT WEATHER AND/OR OBSTRUCTIONS TO VISIBILITY.


NDZ001>003-009>011-017-140900-
NORTHWEST NORTH DAKOTA

CITY           SKY/WX    TMP DP  RH WIND       PRES   REMARKS
WILLISTON      MOCLDY    33  27  78 NW10      30.03S
MINOT          CLOUDY    33  28  81 W15       29.94S
MINOT AFB      CLOUDY    32  28  86 NW13      29.93S
$$

NDZ018>021-031>035-040>046-140900-
SOUTHWEST NORTH DAKOTA

CITY           SKY/WX    TMP DP  RH WIND       PRES   REMARKS
BISMARCK       CLOUDY    27  24  89 CALM      29.97F
DICKINSON      CLOUDY    33  25  72 NW13      29.97S
GARRISON         N/A     32  29  88 NW17      29.95S
HETTINGER ARPT CLOUDY    34  25  69 NW20      30.00F
$$

NDZ004>008-012>016-024-026-027-054-140900-
NORTHEAST NORTH DAKOTA

CITY           SKY/WX    TMP DP  RH WIND       PRES   REMARKS
GRAND FORKS    CLOUDY    18  13  80 CALM      29.99F
GRND FRKS AFB  CLOUDY    17  13  82 CALM      29.99S
DEVILS LAKE    CLOUDY    21  18  88 S3        29.95F
$$

NDZ022-023-025-028>030-036>039-047>053-140900-
SOUTHEAST NORTH DAKOTA

CITY           SKY/WX    TMP DP  RH WIND       PRES   REMARKS
FARGO          CLOUDY    19  14  81 NE3       30.00F
JAMESTOWN      CLOUDY    26  25  96 SW5       29.94F
$$





USA.gov is the U.S. government's official web portal to all federal, state and local government web resources and services.